Flag for U.S.A. Weather past 2 weeks in Amarillo, Texas, U.S.A.

Now
94 °F

Sunny.


Feels Like: 94 °F
Forecast: 72 / 96 °F
Wind: 16 mph from Southwest

Location: Amarillo International Airport

Current Time: Jul 25, 2014 at 1:22:43 PM

Latest Report: Jul 25, 2014 at 12:53 PM


Visibility: 10 mi

Pressure: 29.85 "Hg

Humidity: 32%

Dew point: 60 °F

Location of AmarilloLocation

Historic Weather in Amarillo — Graph

°F

Amarillo temperature yesterday

Maximum temperature yesterday: 95 °F (at 3:53 PM)
Minimum temperature yesterday: 69 °F (at 4:53 AM)
Average temperature yesterday: 82 °F

Past Weeks' High & Low Weather Summary

 TemperatureHumidityPressure
High95 °F (Jul 24, 3:53 PM)100% (Jul 16, 11:52 PM)30.22 "Hg (Jul 16, 11:52 PM)
Low59 °F (Jul 17, 8:53 AM)24% (Jul 10, 4:53 PM)29.75 "Hg (Jul 16, 8:53 PM)
Average76 °F63%29.96 "Hg
* Reported Jul 10 11:53 AM — Jul 25 11:53 AM, Amarillo, Weather by CustomWeather, © 2014

Note: Actual official high and low records may vary slightly from our data, if they occured in-between our weather recording intervals... More about our weather records

Advertising

Amarillo weather history for previous 24 hours

 ConditionsComfort  
Time TempWeatherWind HumidityBarometerVisibility
11:53 AM
Jul 25
92 °FSunny.22 mph33%29.87 "Hg10 mi
10:53 AM88 °FSunny.23 mph40%29.88 "Hg10 mi
9:53 AM83 °FSunny.23 mph48%29.90 "Hg10 mi
8:53 AM78 °FSunny.18 mph56%29.90 "Hg10 mi
7:53 AM74 °FSunny.15 mph64%29.90 "Hg10 mi
6:53 AM73 °FClear.16 mph66%29.90 "Hg10 mi
5:53 AM73 °FClear.15 mph66%29.90 "Hg10 mi
4:53 AM74 °FClear.15 mph64%29.89 "Hg10 mi
3:53 AM75 °FClear.17 mph62%29.90 "Hg10 mi
2:53 AM76 °FClear.17 mph60%29.91 "Hg10 mi
1:53 AM77 °FClear.20 mph58%29.91 "Hg10 mi
12:53 AM79 °FClear.20 mph54%29.92 "Hg10 mi
11:53 PM
Jul 24
78 °FClear.13 mph54%29.92 "Hg10 mi
10:53 PM80 °FClear.9 mph47%29.92 "Hg10 mi
9:53 PM83 °FSunny.14 mph41%29.90 "Hg10 mi
8:53 PM85 °FSunny.12 mph40%29.88 "Hg10 mi
7:53 PM90 °FSunny.16 mph32%29.88 "Hg10 mi
6:53 PM93 °FSunny.15 mph26%29.88 "Hg10 mi
5:53 PM94 °FSunny.10 mph24%29.89 "Hg10 mi
4:53 PM95 °FSunny.15 mph24%29.92 "Hg10 mi
3:53 PM95 °FSunny.15 mph28%29.94 "Hg10 mi
2:53 PM93 °FPassing clouds.10 mph31%29.96 "Hg10 mi
1:53 PM93 °FSunny.10 mph32%29.98 "Hg10 mi
Weather by CustomWeather, © 2014

See weather overviewHow to use our weather pages